Location: Wien
(48.2082°N, 16.3738°E)
Time: 12:00:58
(UTC+02:00)

Tiros 1 despin weight - Pass Details

Date: 15 September 2024
Orbit: 573 x 615 km, 48.2° (Epoch: 06 October)

Event Time Altitude Azimuth Distance (km) Brightness Sun altitude
Rises 05:46:06 0° 254° (WSW) 2,877 - -8.3°
Reaches altitude 10° 05:48:24 10° 253° (WSW) 1,977 - -8.0°
Exits shadow 05:48:24 10° 253° (WSW) 1,975 ? -8.0°
Maximum altitude 05:52:56 79° 169° (SSE) 635 ? -7.2°
Drops below altitude 10° 05:57:31 10° 82° (E) 1,983 ? -6.5°
Sets 05:59:49 0° 81° (E) 2,888 ? -6.1°
